Regional Weather Roundup
Issued by NWS Mt. Holly, NJ

Home | Current Version | Previous Version | Text Only | Print | Product List | Glossary On
Versions: 1 2 3 4 5 6 7 8 9 10 11 12 13 14 15 16 17 18 19 20 21 22 23 24 25 26 27 28 29 30 31 32 33 34 35 36 37 38 39 40 41 42 43 44 45 46 47 48 49 50
921
ASUS41 KPHI 200212
RWRPHI

REGIONAL WEATHER ROUNDUP
NATIONAL WEATHER SERVICE MOUNT HOLLY NJ
1000 PM EDT TUE SEP 19 2017

NOTE:  "FAIR" INDICATES FEW OR NO CLOUDS BELOW 12,000 FEET WITH NO
SIGNIFICANT WEATHER AND/OR OBSTRUCTIONS TO VISIBILITY.

 * = STATION DOES NOT REPORT PRECIPITATION (E.G. RAIN, SNOW, ETC.)
        OR FOG.

NJZ015>026-200300-
SOUTHERN NEW JERSEY

CITY           SKY/WX    TMP DP  RH WIND       PRES   REMARKS
POMONA         CLOUDY    69  68  96 N14G24    29.82S
WILDWOOD*      CLOUDY    69  66  90 N17G25    29.82F
MILLVILLE      CLOUDY    72  68  87 N12G20    29.84F
WRIGHTSTOWN    MOCLDY    68  66  92 N14       29.83F
MOUNT HOLLY    CLOUDY    70  67  90 N15G24    29.86F
TRENTON        CLOUDY    69  66  90 N10       29.88F

$$
NJZ001>014-200300-
NORTHERN NEW JERSEY

CITY           SKY/WX    TMP DP  RH WIND       PRES   REMARKS
SUSSEX         CLOUDY    73  63  70 NE9       29.95S
ANDOVER*         N/A     68  65  90 CALM      29.95S
NEWARK         CLOUDY    71  65  81 N17       29.88S
TETERBORO      CLOUDY    73  65  75 NE10G17   29.88F
CALDWELL       CLOUDY    70  67  90 VRB5      29.91F
ALLAIRE*       LGT RAIN  70  66  87 N16G26    29.85F
TOMS RIVER*    LGT RAIN  69  67  93 N13       29.84F

$$
PAZ043-044-047-054-055-060>062-066>071-200300-
EASTERN PENNSYLVANIA

CITY           SKY/WX    TMP DP  RH WIND       PRES   REMARKS
PHILADELPHIA   CLOUDY    73  65  75 N15G26    29.88S
NORTH PHILA    CLOUDY    72  65  78 N14G24    29.90S
BLUE BELL*     CLOUDY    66  66 100 CALM      29.92S
QUAKERTOWN*    CLOUDY    70  66  88 NE8G17    29.95R
PERKASIE*      HVY RAIN  66  66 100 N7        29.94S
POTTSTOWN      CLOUDY    73  63  70 NE12      29.94R
LANCASTER      CLOUDY    72  67  84 N6        29.93S
COATESVILLE    CLOUDY    73  63  68 N8G15     29.94S
READING        PTCLDY    75  63  66 NE5       29.93R
ALLENTOWN      CLOUDY    74  62  66 NE10      29.94R
MOUNT POCONO   CLOUDY    68  58  70 NE9       30.01S
HAZLETON         N/A     70  57  64 NE5       30.03S
LEHIGHTON      FAIR      66  63  88 CALM      29.95S
WILKES BARRE   PTCLDY    68  61  78 E3        29.98S

$$
DEZALL-MDZ008-012-015-019-020-200300-
DELAWARE AND EASTERN MARYLAND

CITY           SKY/WX    TMP DP  RH WIND       PRES   REMARKS
WILMINGTON     CLOUDY    74  65  73 N12       29.89S
DOVER          DRIZZLE   72  68  88 NW13      29.85S
GEORGETOWN     CLOUDY    71  66  84 N8        29.85S
EASTON         CLOUDY    72  68  88 N6        29.93R
ABERDEEN       CLOUDY    74  67  76 N6        29.90F
PATUXENT       CLOUDY    75  68  78 N10       29.90R
OCEAN CITY     CLOUDY   N/A N/A N/A N12       29.82F
WALLOPS ISLAND CLOUDY    69  68  96 NW13G22   29.85R
CAMBRIDGE      CLOUDY    70  68  94 N6        29.88S
SALISBURY      CLOUDY    70  68  93 NW12      29.85S

$$
PAZ001-021-NYZ056-072-MDZ011-DCZ001-200300-
OTHER NEARBY LOCATIONS

CITY           SKY/WX    TMP DP  RH WIND       PRES   REMARKS
HARRISBURG     PTCLDY    70  65  84 N3        29.93S
WILLIAMSPORT   CLEAR     67  64  90 NW3       29.97R
BINGHAMTON     CLEAR     64  57  78 NE7       30.03R
NEW YORK CITY  CLOUDY    71  65  81 NE10      29.91F
BALTIMORE      MOCLDY    74  66  76 NW5       29.91R
WASHINGTON DC  MOCLDY    74  67  78 N9        29.92R

$$




USA.gov is the U.S. government's official web portal to all federal, state and local government web resources and services.